Regional Weather Roundup
Issued by NWS

Home | Current Version | Previous Version | Text Only | Print | Product List | Glossary On
Versions: 1 2 3 4 5 6 7 8 9 10 11 12 13 14 15 16 17 18 19 20 21 22 23 24 25 26 27 28 29 30 31 32 33 34 35 36 37 38 39 40 41 42 43 44 45 46 47 48 49 50
000
ASUS44 KFWD 260715
RWRTX
NORTH TEXAS HOURLY WEATHER ROUNDUP
NATIONAL WEATHER SERVICE FORT WORTH TX
200 AM CDT MON JUN 26 2017

NOTE: "FAIR" INDICATES FEW OR NO CLOUDS BELOW 12,000 FEET WITH NO
SIGNIFICANT WEATHER AND/OR OBSTRUCTIONS TO VISIBILITY.

TXZ118-119-260800-
DALLAS/FORT WORTH METROPLEX

CITY           SKY/WX    TMP DP  RH WIND       PRES   REMARKS
DFW AIRPORT    CLOUDY    77  64  64 SE13      30.15S
DALLAS LOVE    MOCLDY    78  63  59 SE9       30.16S
FTW MEACHAM    MOCLDY    77  67  71 E7        30.16S
DAL-EXECUTIVE  PTCLDY    75  67  76 E7        30.16R
FTW-ALLIANCE   MOCLDY    75  65  70 SE6       30.16S
FTW-NAS-JRB      N/A    N/A N/A N/A MISG      30.16S
FTW-SPINKS     PTCLDY    74  68  83 CALM      30.17S
ARLINGTON      MOCLDY    76  68  76 E6        30.16S
GRAND PRAIRIE  MOCLDY    75  65  69 E5        30.17S
ADDISON        CLOUDY    77  63  61 SE9       30.18S
MESQUITE       CLOUDY    74  64  72 E6        30.16F
LANCASTER      MOCLDY    73  67  79 SE3       30.17S
$$

TXZ091>094-102>105-117-120-121-131>134-260800-
NORTH CENTRAL TEXAS

CITY           SKY/WX    TMP DP  RH WIND       PRES   REMARKS
SHRMAN/DENISON PTCLDY    69  64  84 E5        30.19S
GAINESVILLE    PTCLDY    69  61  74 CALM      30.20S
BOWIE          CLOUDY    70  63  78 CALM      30.18F
BRIDGEPORT     PTCLDY    68  63  82 CALM      30.19S
DECATUR        CLOUDY    69  62  78 E5        30.18F
DENTON         PTCLDY    72  65  78 SE5       30.17R
MCKINNEY       CLOUDY    72  65  78 SE6       30.17S
BONHAM         CLOUDY    70  63  78 SE7       30.18F
GREENVILLE     CLOUDY    72  64  78 CALM      30.18S
ROCKWALL       CLOUDY    71  64  78 SE5       30.17S
TERRELL        PTCLDY    72  64  76 SE5       30.16S
WAXAHACHIE     CLEAR     73  69  88 CALM      30.17S
CLEBURNE       MOCLDY    73  72  94 E7        30.17S
GRANBURY       PTCLDY    76  69  77 E5        30.18R
$$

TXZ083>090-098>101-113>116-127>130-139>142-154-155-260800-
WESTERN NORTH TEXAS

CITY           SKY/WX    TMP DP  RH WIND       PRES   REMARKS
WICHITA FALLS  CLOUDY    71  61  70 SE8       30.16F
WF-KICKAPOO    CLOUDY    72  61  69 SE7       30.19F
VERNON         CLOUDY    74  61  64 SE5       30.18F
ABILENE        MOCLDY    70  69  97 SE8       30.18S
ABILENE-DYESS  MOCLDY    73  68  84 SE10      30.16F
GRAHAM         CLOUDY    71  69  92 E5        30.15F
BRECKENRIDGE   PTCLDY    73  67  80 E6        30.17F
CISCO          PTCLDY    72  68  88 SE8       30.19R
EASTLAND       CLOUDY    71  68  90 SE5       30.18S
MINERAL WELLS  PTCLDY    72  67  84 E3        30.16R
STEPHENVILLE   PTCLDY    72  67  85 CALM      30.20S
COMANCHE       MOCLDY    71  71 100 SE5       30.18S
BROWNWOOD      CLOUDY    73  68  83 E5        30.17F
COLEMAN        CLOUDY    73  67  83 SE5       30.18F
$$

TXZ143>147-156>162-174-175-260800-
CENTRAL TEXAS

CITY           SKY/WX    TMP DP  RH WIND       PRES   REMARKS
WACO           MOCLDY    75  71  87 E6        30.13F
WACO-MCGREGOR  CLOUDY    75  72  90 SE5       30.14S
HILLSBORO      MOCLDY    74  71  88 E7        30.16S
CORSICANA      CLOUDY    76  70  82 E6        30.16S
MEXIA          CLOUDY    74  68  81 E7        30.14S
HEARNE         CLOUDY    74  74 100 N3        30.13S
CAMERON        CLOUDY    74  71  89 CALM      30.13S
TEMPLE         PTCLDY    73  70  90 S3        30.14F
KILLEEN        LGT RAIN  73  72  94 E6        30.14R
KILLEEN-SKYLRK CLOUDY    74  71  91 E3        30.14S
FORT HOOD      CLOUDY    72  70  94 SE3       30.12R
HAMILTON       PTCLDY    73  73  98 E3        30.18R
LAMPASAS       CLOUDY    76  74  95 CALM      30.15R
$$

TXZ095>097-106>112-122>126-135>138-148>153-164>167-260800-
EAST TEXAS

CITY           SKY/WX    TMP DP  RH WIND       PRES   REMARKS
PARIS            N/A     69  63  81 SE6       30.19F
SULPHUR SPRNGS CLEAR     72  64  75 SE3       30.19S
MOUNT PLEASANT CLEAR     67  63  86 CALM      30.19F
GILMER         CLEAR     65  64  97 CALM      30.17S
MINEOLA        CLEAR     66  64  94 CALM      30.16F
TYLER          CLEAR     72  63  73 SE12      30.15F
LONGVIEW       CLEAR     71  65  81 VRB3      30.16S
MARSHALL         N/A     65  63  93 N3        30.19R
PALESTINE      CLOUDY    73  70  90 E3        30.16S
JACKSONVILLE   CLEAR     69  66  91 E3        30.17F
HENDERSON      CLEAR     70  62  76 E5        30.17S
CENTER         SUNNY     72  70  94 CALM      30.16F
NACOGDOCHES    MOCLDY    72  64  78 MISG      30.13F
LUFKIN         CLEAR     71  67  87 NE3       30.14F
$$

SUPPLEMENTAL OBSERVATIONS (NWS FORT WORTH AREA)

CITY           SKY/WX    TMP DP  RH WIND       PRES   REMARKS
DENISON DAM      N/A     70  63  78 SE2         N/A
CADDO GRASSLND   N/A     72  63  73 S3          N/A
PAT MAYSE LAKE   N/A     72  61  68 SE6         N/A
GREENVILLE       N/A     70  63  78 E1          N/A
CEDAR HILL       N/A     73  66  78 E2          N/A
LBJ GRASSLAND    N/A     72  63  73 E3          N/A
POSSUM KINGDOM   N/A     73  68  83 E7          N/A
GRANBURY         N/A     75  68  78 E6          N/A
COMANCHE         N/A     72  68  88 SE5         N/A
MCGREGOR         N/A     73  68  83 E1          N/A
TEMPLE           N/A     73  70  88 E2          N/A
LAKE LIMESTONE   N/A     73  68  83 E5          N/A
ATHENS           N/A     72  63  73 E6          N/A
$$

SUPPLEMENTAL OBSERVATIONS (NWS NORMAN AREA)

CITY           SKY/WX    TMP DP  RH WIND       PRES   REMARKS
GOODLETT         N/A     72  62  71 SE3       30.19F
CROWELL          N/A     72  65  79 SE2       30.19S
KNOX CITY        N/A     73  64  73 E6        30.18S
SEYMOUR          N/A     72  62  69 E7        30.17F
MILLERS CREEK    N/A     72  63  73 E5          N/A
$$

SUPPLEMENTAL OBSERVATIONS (NWS SAN ANGELO AREA)

CITY           SKY/WX    TMP DP  RH WIND       PRES   REMARKS
WEINERT          N/A     72  67  82 E6        30.18R
HASKELL          N/A     72  65  78 E7        30.17F
THROCKMORTON     N/A     71  67  90 E3        30.18F
STAMFORD         N/A     73  68  83 SE12      30.17F
CLYDE            N/A     70  68  92 SE8       30.19F
HAMBY            N/A     72  66  83 SE5         N/A
IVIE RESERVOIR   N/A     73  68  83 E8          N/A
COLORADO BEND    N/A     73  68  83 SE1         N/A
$$

SUPPLEMENTAL OBSERVATIONS (NWS SHREVEPORT AREA)

CITY           SKY/WX    TMP DP  RH WIND       PRES   REMARKS
CLARKSVILLE      N/A    N/A N/A N/A SE1         N/A
TEXARKANA        N/A    N/A N/A N/A CALM        N/A
LINDEN           N/A     64  61  88 CALM        N/A
CADDO LAKE       N/A    N/A N/A N/A CALM        N/A
GILMER           N/A     66  63  88 CALM        N/A
HENDERSON        N/A     70  63  78 E5          N/A
LUFKIN           N/A     72  68  88 MISG        N/A
N SABINE NF      N/A     66  64  94 MISG        N/A
S SABINE NF      N/A     72  64  78 NE2         N/A
$$

SUPPLEMENTAL OBSERVATIONS ARE A COLLECTION OF AUTOMATED INSTRUMENTS
THAT ARE MAINTAINED BY A VARIETY OF FEDERAL AND STATE AGENCIES.
CERTAIN ELEMENTS...SUCH AS HUMIDITY VALUES AND SUSTAINED WIND
SPEEDS...MAY BE APPROXIMATED.




USA.gov is the U.S. government's official web portal to all federal, state and local government web resources and services.